• în România
  • Lista ţărilor
  • Pe 7 zile
  • Temperatura apei
  • Hartă satelitară
  • Meteo pe hartă
  • Widget-uri
  • user-avatar
    Intrare

    Meteo pe oră la Semenovskoe

    Astăzi, 23 Aprilie, Luni

    Timp Temperatura Precipitaţii Vânt Presiune Umiditate
    00:00 -2°C° 0 mm 2 m/s 744 mmHg 79%
    01:00 -3°C° 0 mm 2 m/s 744 mmHg 81%
    02:00 -3°C° 0 mm 2 m/s 745 mmHg 82%
    03:00 -3°C° 0 mm 2 m/s 745 mmHg 82%
    04:00 -3°C° 0 mm 2 m/s 745 mmHg 82%
    05:00 -3°C° 0 mm 2 m/s 746 mmHg 81%
    06:00 -2°C° 0 mm 3 m/s 746 mmHg 71%
    07:00 0°C° 0 mm 3 m/s 746 mmHg 62%
    08:00 +1°C° 0 mm 3 m/s 747 mmHg 52%
    09:00 +2°C° 0 mm 3 m/s 747 mmHg 48%
    10:00 +3°C° 0 mm 3 m/s 747 mmHg 45%
    11:00 +5°C° 0 mm 3 m/s 747 mmHg 41%
    12:00 +5°C° 0 mm 3 m/s 746 mmHg 40%
    13:00 +7°C° 0 mm 3 m/s 746 mmHg 39%
    14:00 +7°C° 0 mm 3 m/s 746 mmHg 39%
    15:00 +7°C° 0 mm 3 m/s 746 mmHg 40%
    16:00 +7°C° 0 mm 2 m/s 746 mmHg 42%
    17:00 +7°C° 0 mm 2 m/s 746 mmHg 44%
    18:00 +5°C° 0 mm 2 m/s 746 mmHg 51%
    19:00 +4°C° 0 mm 1 m/s 746 mmHg 58%
    20:00 +1°C° 0 mm 0 m/s 746 mmHg 64%
    21:00 +1°C° 0 mm 0 m/s 746 mmHg 66%
    22:00 0°C° 0 mm 0 m/s 746 mmHg 67%
    23:00 0°C° 0 mm 0 m/s 746 mmHg 68%

    Mâine, 24 Aprilie, Marţi

    Timp Temperatura Precipitaţii Vânt Presiune Umiditate
    00:00 0°C° 0 mm 0 m/s 746 mmHg 69%
    01:00 +1°C° 0 mm 1 m/s 746 mmHg 69%
    02:00 0°C° 0 mm 1 m/s 746 mmHg 70%
    03:00 +1°C° 0 mm 1 m/s 746 mmHg 70%
    04:00 +1°C° 0 mm 1 m/s 745 mmHg 70%
    05:00 +1°C° 0 mm 1 m/s 745 mmHg 70%
    06:00 +2°C° 0 mm 2 m/s 745 mmHg 63%
    07:00 +4°C° 0 mm 2 m/s 745 mmHg 56%
    08:00 +6°C° 0 mm 2 m/s 745 mmHg 50%
    09:00 +7°C° 0 mm 3 m/s 744 mmHg 47%
    10:00 +8°C° 0 mm 3 m/s 744 mmHg 44%
    11:00 +10°C° 0 mm 3 m/s 743 mmHg 41%
    12:00 +10°C° 0 mm 3 m/s 743 mmHg 43%
    13:00 +10°C° 0 mm 3 m/s 742 mmHg 45%
    14:00 +10°C° 0 mm 3 m/s 742 mmHg 47%
    15:00 +10°C° 0,1 mm 3 m/s 741 mmHg 53%
    16:00 +9°C° 0,1 mm 3 m/s 741 mmHg 59%
    17:00 +9°C° 0,1 mm 2 m/s 741 mmHg 65%
    18:00 +8°C° 0,3 mm 3 m/s 740 mmHg 71%
    19:00 +7°C° 0,3 mm 3 m/s 740 mmHg 76%
    20:00 +5°C° 0,3 mm 3 m/s 740 mmHg 81%
    21:00 +5°C° 0,2 mm 3 m/s 740 mmHg 85%
    22:00 +5°C° 0,2 mm 3 m/s 739 mmHg 88%
    23:00 +6°C° 0,2 mm 2 m/s 739 mmHg 91%

    Poimâine, 25 Aprilie, Miercuri

    Timp Temperatura Precipitaţii Vânt Presiune Umiditate
    00:00 +6°C° 0 mm 2 m/s 739 mmHg 93%
    01:00 +5°C° 0 mm 2 m/s 739 mmHg 95%
    02:00 +5°C° 0 mm 2 m/s 739 mmHg 97%
    03:00 +5°C° 0 mm 2 m/s 739 mmHg 97%
    04:00 +5°C° 0 mm 2 m/s 738 mmHg 97%
    05:00 +5°C° 0 mm 2 m/s 738 mmHg 97%
    06:00 +7°C° 0 mm 2 m/s 738 mmHg 93%
    07:00 +8°C° 0 mm 2 m/s 738 mmHg 90%
    08:00 +9°C° 0 mm 3 m/s 738 mmHg 86%
    09:00 +9°C° 0 mm 3 m/s 738 mmHg 82%
    10:00 +10°C° 0 mm 3 m/s 738 mmHg 77%
    11:00 +11°C° 0 mm 4 m/s 738 mmHg 72%
    12:00 +11°C° 0,1 mm 4 m/s 737 mmHg 74%
    13:00 +11°C° 0,1 mm 4 m/s 737 mmHg 76%
    14:00 +10°C° 0,1 mm 4 m/s 737 mmHg 78%
    15:00 +9°C° 0,2 mm 5 m/s 737 mmHg 75%
    16:00 +9°C° 0,2 mm 5 m/s 736 mmHg 73%
    17:00 +9°C° 0,2 mm 5 m/s 736 mmHg 71%
    18:00 +8°C° 0,1 mm 4 m/s 736 mmHg 75%
    19:00 +7°C° 0,1 mm 4 m/s 737 mmHg 78%
    20:00 +5°C° 0,1 mm 3 m/s 737 mmHg 82%
    21:00 +5°C° 0 mm 3 m/s 737 mmHg 84%
    22:00 +5°C° 0 mm 2 m/s 737 mmHg 87%
    23:00 +5°C° 0 mm 2 m/s 737 mmHg 89%

    26 Aprilie, Joi

    Timp Temperatura Precipitaţii Vânt Presiune Umiditate
    00:00 +4°C° 0 mm 2 m/s 737 mmHg 90%
    01:00 +4°C° 0 mm 2 m/s 737 mmHg 91%
    02:00 +4°C° 0 mm 2 m/s 737 mmHg 91%
    03:00 +4°C° 0 mm 2 m/s 737 mmHg 91%
    04:00 +4°C° 0 mm 2 m/s 736 mmHg 92%
    05:00 +3°C° 0 mm 2 m/s 736 mmHg 92%
    06:00 +5°C° 0 mm 2 m/s 736 mmHg 84%
    07:00 +7°C° 0 mm 3 m/s 736 mmHg 77%
    08:00 +9°C° 0 mm 3 m/s 736 mmHg 69%
    09:00 +10°C° 0,1 mm 4 m/s 736 mmHg 64%
    10:00 +10°C° 0,1 mm 5 m/s 736 mmHg 60%
    11:00 +12°C° 0,1 mm 5 m/s 737 mmHg 55%
    12:00 +12°C° 0,3 mm 5 m/s 737 mmHg 53%
    13:00 +12°C° 0,3 mm 5 m/s 737 mmHg 52%
    14:00 +13°C° 0,3 mm 5 m/s 737 mmHg 50%
    15:00 +12°C° 0,1 mm 5 m/s 737 mmHg 51%
    16:00 +12°C° 0,1 mm 4 m/s 737 mmHg 51%
    17:00 +12°C° 0,1 mm 4 m/s 738 mmHg 52%
    18:00 +10°C° 0,1 mm 4 m/s 738 mmHg 60%
    19:00 +9°C° 0,1 mm 3 m/s 739 mmHg 67%
    20:00 +8°C° 0,1 mm 3 m/s 739 mmHg 75%
    21:00 +7°C° 0 mm 3 m/s 739 mmHg 77%
    22:00 +7°C° 0 mm 3 m/s 740 mmHg 78%
    23:00 +5°C° 0 mm 3 m/s 740 mmHg 80%

    27 Aprilie, Vineri

    Timp Temperatura Precipitaţii Vânt Presiune Umiditate
    00:00 +5°C° 0 mm 3 m/s 740 mmHg 81%
    01:00 +5°C° 0 mm 3 m/s 740 mmHg 81%
    02:00 +4°C° 0 mm 3 m/s 741 mmHg 82%
    03:00 +4°C° 0 mm 3 m/s 741 mmHg 82%
    04:00 +4°C° 0 mm 3 m/s 741 mmHg 83%
    05:00 +4°C° 0 mm 3 m/s 742 mmHg 83%
    06:00 +5°C° 0 mm 4 m/s 742 mmHg 75%
    07:00 +7°C° 0 mm 4 m/s 742 mmHg 67%
    08:00 +8°C° 0 mm 5 m/s 743 mmHg 59%
    09:00 +11°C° 0 mm 4 m/s 743 mmHg 54%
    10:00 +12°C° 0 mm 4 m/s 743 mmHg 49%
    11:00 +13°C° 0 mm 4 m/s 743 mmHg 43%
    12:00 +14°C° 0 mm 4 m/s 743 mmHg 41%
    13:00 +14°C° 0 mm 4 m/s 743 mmHg 38%
    14:00 +15°C° 0 mm 4 m/s 743 mmHg 36%
    15:00 +16°C° 0 mm 3 m/s 742 mmHg 40%
    16:00 +15°C° 0 mm 2 m/s 742 mmHg 43%
    17:00 +15°C° 0 mm 2 m/s 741 mmHg 47%
    18:00 +13°C° 1,4 mm 2 m/s 741 mmHg 60%
    19:00 +10°C° 1,4 mm 2 m/s 741 mmHg 73%
    20:00 +9°C° 1,4 mm 2 m/s 741 mmHg 86%
    21:00 +8°C° 0,3 mm 3 m/s 740 mmHg 87%
    22:00 +8°C° 0,3 mm 3 m/s 740 mmHg 88%
    23:00 +7°C° 0,3 mm 4 m/s 740 mmHg 89%

    28 Aprilie, Sâmbătă

    Timp Temperatura Precipitaţii Vânt Presiune Umiditate
    00:00 +6°C° 0 mm 4 m/s 740 mmHg 88%
    01:00 +5°C° 0 mm 4 m/s 740 mmHg 87%
    02:00 +5°C° 0 mm 4 m/s 740 mmHg 87%
    03:00 +5°C° 0 mm 5 m/s 740 mmHg 86%
    04:00 +5°C° 0 mm 5 m/s 741 mmHg 84%
    05:00 +4°C° 0 mm 6 m/s 741 mmHg 83%
    06:00 +4°C° 0 mm 6 m/s 741 mmHg 82%
    07:00 +4°C° 0 mm 6 m/s 742 mmHg 80%
    08:00 +5°C° 0 mm 7 m/s 742 mmHg 79%
    09:00 +5°C° 0 mm 7 m/s 743 mmHg 76%
    10:00 +5°C° 0 mm 7 m/s 744 mmHg 73%
    11:00 +6°C° 0 mm 7 m/s 744 mmHg 71%
    12:00 +8°C° 0 mm 7 m/s 745 mmHg 66%
    13:00 +9°C° 0 mm 6 m/s 745 mmHg 62%
    14:00 +9°C° 0 mm 6 m/s 745 mmHg 57%
    15:00 +9°C° 0 mm 6 m/s 746 mmHg 57%
    16:00 +9°C° 0 mm 5 m/s 746 mmHg 58%
    17:00 +10°C° 0 mm 4 m/s 746 mmHg 58%
    18:00 +8°C° 0 mm 3 m/s 747 mmHg 66%
    19:00 +7°C° 0 mm 2 m/s 747 mmHg 74%
    20:00 +6°C° 0 mm 1 m/s 747 mmHg 82%
    21:00 +6°C° 0 mm 1 m/s 748 mmHg 85%
    22:00 +5°C° 0 mm 1 m/s 748 mmHg 87%
    23:00 +5°C° 0 mm 1 m/s 748 mmHg 90%
    Arată mai mult